TimeEST,TemperatureF,Dew PointF,Humidity,Sea Level PressureIn,VisibilityMPH,Wind Direction,Wind SpeedMPH,Gust SpeedMPH,PrecipitationIn,Events,Conditions,WindDirDegrees,DateUTC
12:15 AM,35.6,26.6,70,30.04,10.0,Calm,Calm,-,N/A,,Clear,0,2013-02-04 05:15:00
12:35 AM,32.0,24.8,75,30.05,10.0,Calm,Calm,-,N/A,,Clear,0,2013-02-04 05:35:00
12:55 AM,32.0,24.8,75,30.05,10.0,Calm,Calm,-,N/A,,Clear,0,2013-02-04 05:55:00
1:15 AM,32.0,24.8,75,30.05,10.0,Calm,Calm,-,N/A,,Clear,0,2013-02-04 06:15:00
1:35 AM,32.0,24.8,75,30.05,10.0,Calm,Calm,-,N/A,,Clear,0,2013-02-04 06:35:00
1:55 AM,32.0,26.6,80,30.06,10.0,Calm,Calm,-,N/A,,Clear,0,2013-02-04 06:55:00
2:15 AM,30.2,24.8,80,30.06,10.0,Calm,Calm,-,N/A,,Clear,0,2013-02-04 07:15:00
2:35 AM,28.4,24.8,86,30.06,10.0,Calm,Calm,-,N/A,,Clear,0,2013-02-04 07:35:00
2:55 AM,28.4,24.8,86,30.06,10.0,Calm,Calm,-,N/A,,Clear,0,2013-02-04 07:55:00
3:15 AM,28.4,24.8,86,30.07,10.0,Calm,Calm,-,N/A,,Clear,0,2013-02-04 08:15:00
3:35 AM,28.4,24.8,86,30.07,10.0,Calm,Calm,-,N/A,,Clear,0,2013-02-04 08:35:00
3:55 AM,28.4,24.8,86,30.07,10.0,Calm,Calm,-,N/A,,Clear,0,2013-02-04 08:55:00
4:15 AM,28.4,24.8,86,30.08,10.0,Calm,Calm,-,N/A,,Clear,0,2013-02-04 09:15:00
5:55 AM,24.8,23.0,93,30.09,10.0,Calm,Calm,-,N/A,,Clear,0,2013-02-04 10:55:00
6:15 AM,26.6,24.8,93,30.10,10.0,Calm,Calm,-,N/A,,Clear,0,2013-02-04 11:15:00
6:35 AM,24.8,24.8,100,30.11,10.0,Calm,Calm,-,N/A,,Clear,0,2013-02-04 11:35:00
6:55 AM,26.6,24.8,93,30.12,10.0,Calm,Calm,-,N/A,,Clear,0,2013-02-04 11:55:00
7:15 AM,26.6,26.6,100,30.12,10.0,Calm,Calm,-,N/A,,Clear,0,2013-02-04 12:15:00
7:35 AM,28.4,26.6,93,30.13,10.0,Calm,Calm,-,N/A,,Clear,0,2013-02-04 12:35:00
7:55 AM,28.4,26.6,93,30.13,10.0,Calm,Calm,-,N/A,,Clear,0,2013-02-04 12:55:00
8:15 AM,32.0,28.4,87,30.14,10.0,Calm,Calm,-,N/A,,Clear,0,2013-02-04 13:15:00
8:35 AM,32.0,32.0,100,30.15,10.0,Calm,Calm,-,N/A,,Clear,0,2013-02-04 13:35:00
8:55 AM,35.6,30.2,81,30.16,10.0,Calm,Calm,-,N/A,,Clear,0,2013-02-04 13:55:00
9:15 AM,37.4,28.4,70,30.16,10.0,Calm,Calm,-,N/A,,Clear,0,2013-02-04 14:15:00
9:35 AM,41.0,26.6,57,30.17,10.0,NNE,3.5,-,N/A,,Clear,20,2013-02-04 14:35:00
9:55 AM,41.0,26.6,57,30.17,10.0,Calm,Calm,-,N/A,,Clear,0,2013-02-04 14:55:00
10:15 AM,44.6,26.6,49,30.16,10.0,East,3.5,-,N/A,,Clear,80,2013-02-04 15:15:00
10:35 AM,44.6,26.6,49,30.17,10.0,SE,4.6,-,N/A,,Clear,130,2013-02-04 15:35:00
10:55 AM,46.4,26.6,46,30.17,10.0,SE,3.5,-,N/A,,Clear,130,2013-02-04 15:55:00
11:15 AM,46.4,26.6,46,30.15,10.0,NE,3.5,-,N/A,,Clear,50,2013-02-04 16:15:00
11:35 AM,48.2,26.6,43,30.15,10.0,ESE,3.5,-,N/A,,Clear,120,2013-02-04 16:35:00
11:55 AM,48.2,23.0,37,30.14,10.0,Calm,Calm,-,N/A,,Clear,0,2013-02-04 16:55:00
12:15 PM,48.2,24.8,40,30.14,10.0,ESE,3.5,-,N/A,,Clear,120,2013-02-04 17:15:00
12:35 PM,48.2,24.8,40,30.14,10.0,ESE,3.5,-,N/A,,Clear,110,2013-02-04 17:35:00
12:55 PM,48.2,24.8,40,30.13,10.0,Calm,Calm,-,N/A,,Clear,0,2013-02-04 17:55:00
1:15 PM,48.2,24.8,40,30.12,10.0,Calm,Calm,-,N/A,,Clear,0,2013-02-04 18:15:00
1:35 PM,50.0,24.8,37,30.10,10.0,NE,3.5,-,N/A,,Clear,40,2013-02-04 18:35:00
1:55 PM,50.0,24.8,37,30.11,10.0,NW,3.5,-,N/A,,Clear,310,2013-02-04 18:55:00
2:15 PM,50.0,24.8,37,30.10,10.0,Calm,Calm,-,N/A,,Clear,0,2013-02-04 19:15:00
2:35 PM,50.0,26.6,40,30.08,10.0,Calm,Calm,-,N/A,,Clear,0,2013-02-04 19:35:00
2:55 PM,50.0,26.6,40,30.09,10.0,Calm,Calm,-,N/A,,Clear,0,2013-02-04 19:55:00
3:15 PM,51.8,26.6,38,30.10,10.0,South,5.8,-,N/A,,Clear,190,2013-02-04 20:15:00
3:35 PM,51.8,26.6,38,30.09,10.0,SE,9.2,-,N/A,,Clear,140,2013-02-04 20:35:00
3:55 PM,51.8,26.6,38,30.09,10.0,SSE,5.8,-,N/A,,Clear,160,2013-02-04 20:55:00
4:15 PM,50.0,26.6,40,30.08,10.0,SSE,5.8,-,N/A,,Clear,150,2013-02-04 21:15:00
4:35 PM,50.0,26.6,40,30.07,10.0,SSE,5.8,-,N/A,,Clear,150,2013-02-04 21:35:00
4:55 PM,50.0,26.6,40,30.08,10.0,SSE,4.6,-,N/A,,Clear,150,2013-02-04 21:55:00
5:15 PM,50.0,28.4,43,30.07,10.0,SE,4.6,-,N/A,,Clear,140,2013-02-04 22:15:00
5:35 PM,48.2,28.4,46,30.08,10.0,South,6.9,-,N/A,,Clear,170,2013-02-04 22:35:00
5:55 PM,48.2,28.4,46,30.07,10.0,SSE,5.8,-,N/A,,Clear,160,2013-02-04 22:55:00
6:15 PM,48.2,28.4,46,30.08,10.0,SSE,4.6,-,N/A,,Clear,160,2013-02-04 23:15:00
6:35 PM,46.4,28.4,50,30.08,10.0,South,4.6,-,N/A,,Clear,180,2013-02-04 23:35:00
6:55 PM,46.4,28.4,50,30.09,10.0,Calm,Calm,-,N/A,,Clear,0,2013-02-04 23:55:00
7:15 PM,44.6,32.0,61,30.08,10.0,Calm,Calm,-,N/A,,Clear,0,2013-02-05 00:15:00
7:35 PM,44.6,30.2,57,30.08,10.0,Calm,Calm,-,N/A,,Clear,0,2013-02-05 00:35:00
7:55 PM,41.0,32.0,70,30.07,10.0,Calm,Calm,-,N/A,,Clear,0,2013-02-05 00:55:00
8:15 PM,41.0,32.0,70,30.08,10.0,Calm,Calm,-,N/A,,Clear,0,2013-02-05 01:15:00
8:35 PM,41.0,32.0,70,30.08,10.0,Calm,Calm,-,N/A,,Clear,0,2013-02-05 01:35:00
8:55 PM,41.0,32.0,70,30.08,10.0,Calm,Calm,-,N/A,,Clear,0,2013-02-05 01:55:00
9:15 PM,39.2,32.0,75,30.09,10.0,Calm,Calm,-,N/A,,Clear,0,2013-02-05 02:15:00
9:35 PM,39.2,32.0,75,30.09,10.0,Calm,Calm,-,N/A,,Clear,0,2013-02-05 02:35:00
9:55 PM,37.4,32.0,81,30.10,10.0,Calm,Calm,-,N/A,,Clear,0,2013-02-05 02:55:00
10:15 PM,37.4,32.0,81,30.10,10.0,Calm,Calm,-,N/A,,Clear,0,2013-02-05 03:15:00
10:35 PM,35.6,32.0,87,30.09,10.0,Calm,Calm,-,N/A,,Clear,0,2013-02-05 03:35:00
10:55 PM,37.4,32.0,81,30.08,10.0,Calm,Calm,-,N/A,,Clear,0,2013-02-05 03:55:00
11:15 PM,37.4,32.0,81,30.08,10.0,Calm,Calm,-,N/A,,Clear,0,2013-02-05 04:15:00
11:35 PM,37.4,33.8,87,30.07,10.0,Calm,Calm,-,N/A,,Clear,0,2013-02-05 04:35:00
11:55 PM,37.4,35.6,93,30.06,10.0,Calm,Calm,-,N/A,,Clear,0,2013-02-05 04:55:00